Location: Newark
(52.3500°N, 175.9667°E)
Time: 22:04:44
(UTC+00:00)

Altair - Pass Details

Date: 29 April 2021
Orbit: 1501 x 1683 km, 47.2° (Epoch: 13 May)

Event Time Altitude Azimuth Distance (km) Brightness Sun altitude
Rises 23:18:44 0° 283° (WNW) 4,781 9.9 50.9°
Reaches altitude 10° 23:24:28 10° 257° (WSW) 3,746 9.6 51.2°
Maximum altitude 23:27:43 12° 236° (WSW) 3,542 9.7 51.3°
Drops below altitude 10° 23:30:57 10° 215° (SW) 3,696 10.0 51.5°
Sets 23:36:33 0° 188° (S) 4,643 10.6 51.7°
